Terminal Aerodrome Forecast
Issued by NWS

Home | Current Version | Previous Version | Text Only | Print | Product List | Glossary On
Versions: 1 2 3 4 5 6 7 8 9 10 11 12 13 14 15 16 17 18 19 20 21 22 23 24
000
FTUS42 KTAE 252300
TAFECP
TAF
KECP 252332Z 2600/2624 34010KT P6SM -RA SCT008 BKN050 OVC100
     FM260800 34010KT P6SM VCSH OVC050
     FM261200 34008KT P6SM SCT250=

USA.gov is the U.S. government's official web portal to all federal, state and local government web resources and services.